Погода в Калининауле

Россия / Республика Дагестан     43°04′18″N   46°33′58″E
темп.,
°C
ветер,
м/с
пор.,
м/с
влажн.,
%
обл.,
%
осадки,
мм/ч
давл.,
гПа
погр.,
м
12 апреля, пн
пн1200:00+8ююв1174100 0.0 101416
03:00+8юв0180100 0.0 101511
06:00+7с0182100 0.0 101620
09:00+10с2170100 0.0 1018593
12:00+10с3272100 0.0 1018895
15:00+10с2277100 0.1 1019728
18:00+9ссз1184100 0.1 1021186
21:00+8с118697 0.1 1021118
13 апреля, вт
вт1300:00+6вюв119433 0.0 102137
03:00+6юз019355 0.0 102179
06:00+6в1291100 0.0 1021107
09:00+10ссв237761 0.0 1020546
12:00+10ссв337980 0.0 1019607
15:00+13ссв346385 0.1 1018984
18:00+9ссз228286 0.0 1018448
21:00+7ссз0192100 0.1 101986
14 апреля, ср
ср1400:00+6ююв118754 0.0 101630
03:00+6ююз1187100 0.0 101515
06:00+6зюз1186100 0.0 101529
09:00+9сз1279100 0.0 1015474
12:00+7з3485100 0.4 1016438
15:00+5ю2290100 9.1 1018199
18:00+8юз1182100 0.7 101649
21:00+6юз2286100 0.8 101877
15 апреля, чт
чт1500:00+5ююз2395100 9.5 1019172
03:00+6ююз2392100 11.3 101788
06:00+6ююз2486100 0.6 1017148
09:00+9зсз2468100 1.4 1016783
12:00+12сз355780 0.1 10141134
15:00+13сз445312 0.1 10141343
18:00+10зсз11721 0.0 101520
21:00+7ююз32735 0.0 101625
16 апреля, пт
пт1600:00+7ю3266100 0.0 101519
03:00+7ю326416 0.0 101419
06:00+7ю226953 0.0 101422
09:00+13ссз21486 0.0 1014820
12:00+14ссз4350100 0.0 10141589
15:00+11зсз2370100 0.6 10151034
18:00+9зюз2383100 1.3 1016193
21:00+7юз1290100 4.3 1018155